• In Deutschland
  • Länderverzeichnis
  • Für 7 Tage
  • Wassertemperatur
  • Satellitenkarten
  • Wetterkarte
  • Widgets
  • user-avatar
    Anmelden

    Stündliche Wetter Gotha

    Heute, 23 Oktober, Montag

    Zeit Temperatur Niederschläge Wind Luftdruck Luftfeuchtigkeit
    00:00 +6°C° 0,1 mm 4 m/S 734 mmHg 93%
    01:00 +5°C° 0,1 mm 4 m/S 734 mmHg 93%
    02:00 +5°C° 0 mm 4 m/S 734 mmHg 93%
    03:00 +5°C° 0 mm 4 m/S 734 mmHg 93%
    04:00 +5°C° 0 mm 4 m/S 734 mmHg 93%
    05:00 +5°C° 0,1 mm 4 m/S 735 mmHg 93%
    06:00 +5°C° 0,1 mm 4 m/S 735 mmHg 92%
    07:00 +5°C° 0,1 mm 4 m/S 735 mmHg 92%
    08:00 +6°C° 0,3 mm 4 m/S 735 mmHg 91%
    09:00 +6°C° 0,3 mm 4 m/S 735 mmHg 90%
    10:00 +7°C° 0,3 mm 5 m/S 736 mmHg 89%
    11:00 +7°C° 0,1 mm 5 m/S 736 mmHg 87%
    12:00 +8°C° 0,1 mm 5 m/S 736 mmHg 85%
    13:00 +8°C° 0,1 mm 5 m/S 736 mmHg 83%
    14:00 +8°C° 0 mm 4 m/S 736 mmHg 84%
    15:00 +8°C° 0 mm 4 m/S 736 mmHg 84%
    16:00 +8°C° 0 mm 4 m/S 736 mmHg 84%
    17:00 +8°C° 0,1 mm 4 m/S 737 mmHg 86%
    18:00 +8°C° 0,1 mm 4 m/S 737 mmHg 88%
    19:00 +7°C° 0,1 mm 4 m/S 737 mmHg 90%
    20:00 +7°C° 0 mm 4 m/S 737 mmHg 90%
    21:00 +7°C° 0 mm 4 m/S 738 mmHg 90%
    22:00 +7°C° 0 mm 4 m/S 738 mmHg 91%
    23:00 +8°C° 0 mm 3 m/S 738 mmHg 92%

    Morgen, 24 Oktober, Dienstag

    Zeit Temperatur Niederschläge Wind Luftdruck Luftfeuchtigkeit
    00:00 +7°C° 0 mm 3 m/S 739 mmHg 93%
    01:00 +7°C° 0 mm 2 m/S 739 mmHg 95%
    02:00 +7°C° 0 mm 2 m/S 739 mmHg 95%
    03:00 +7°C° 0 mm 2 m/S 739 mmHg 96%
    04:00 +7°C° 0 mm 2 m/S 739 mmHg 96%
    05:00 +7°C° 0 mm 2 m/S 739 mmHg 96%
    06:00 +7°C° 0 mm 2 m/S 739 mmHg 96%
    07:00 +7°C° 0 mm 2 m/S 740 mmHg 96%
    08:00 +8°C° 0,1 mm 2 m/S 740 mmHg 94%
    09:00 +9°C° 0,1 mm 2 m/S 740 mmHg 93%
    10:00 +10°C° 0,1 mm 2 m/S 740 mmHg 91%
    11:00 +11°C° 0 mm 3 m/S 740 mmHg 90%
    12:00 +11°C° 0 mm 3 m/S 740 mmHg 89%
    13:00 +12°C° 0 mm 3 m/S 740 mmHg 88%
    14:00 +12°C° 0 mm 3 m/S 740 mmHg 89%
    15:00 +12°C° 0 mm 3 m/S 740 mmHg 89%
    16:00 +13°C° 0 mm 3 m/S 740 mmHg 89%
    17:00 +12°C° 0 mm 3 m/S 740 mmHg 91%
    18:00 +12°C° 0 mm 3 m/S 740 mmHg 93%
    19:00 +12°C° 0 mm 2 m/S 740 mmHg 95%
    20:00 +11°C° 0,1 mm 3 m/S 740 mmHg 95%
    21:00 +12°C° 0,1 mm 3 m/S 740 mmHg 94%
    22:00 +12°C° 0,1 mm 3 m/S 740 mmHg 94%
    23:00 +12°C° 0 mm 3 m/S 740 mmHg 95%

    übermorgen, 25 Oktober, Mittwoch

    Zeit Temperatur Niederschläge Wind Luftdruck Luftfeuchtigkeit
    00:00 +12°C° 0 mm 3 m/S 740 mmHg 95%
    01:00 +12°C° 0 mm 3 m/S 740 mmHg 96%
    02:00 +12°C° 0 mm 3 m/S 740 mmHg 96%
    03:00 +12°C° 0 mm 3 m/S 740 mmHg 96%
    04:00 +12°C° 0 mm 3 m/S 740 mmHg 95%
    05:00 +12°C° 0 mm 3 m/S 740 mmHg 95%
    06:00 +12°C° 0 mm 3 m/S 740 mmHg 95%
    07:00 +12°C° 0 mm 3 m/S 740 mmHg 94%
    08:00 +13°C° 0 mm 4 m/S 740 mmHg 92%
    09:00 +14°C° 0 mm 4 m/S 740 mmHg 90%
    10:00 +15°C° 0 mm 5 m/S 741 mmHg 87%
    11:00 +15°C° 0 mm 5 m/S 740 mmHg 85%
    12:00 +16°C° 0 mm 5 m/S 740 mmHg 82%
    13:00 +16°C° 0 mm 5 m/S 740 mmHg 80%
    14:00 +16°C° 0 mm 5 m/S 740 mmHg 80%
    15:00 +15°C° 0 mm 4 m/S 740 mmHg 81%
    16:00 +15°C° 0 mm 4 m/S 740 mmHg 81%
    17:00 +14°C° 0 mm 3 m/S 740 mmHg 85%
    18:00 +13°C° 0 mm 3 m/S 741 mmHg 90%
    19:00 +12°C° 0 mm 2 m/S 741 mmHg 94%
    20:00 +12°C° 0 mm 2 m/S 741 mmHg 94%
    21:00 +12°C° 0 mm 2 m/S 741 mmHg 94%
    22:00 +12°C° 0 mm 2 m/S 741 mmHg 95%
    23:00 +12°C° 0 mm 2 m/S 741 mmHg 95%

    26 Oktober, Donnerstag

    Zeit Temperatur Niederschläge Wind Luftdruck Luftfeuchtigkeit
    00:00 +12°C° 0 mm 2 m/S 741 mmHg 95%
    01:00 +10°C° 0 mm 2 m/S 741 mmHg 95%
    02:00 +10°C° 0 mm 2 m/S 741 mmHg 96%
    03:00 +10°C° 0 mm 2 m/S 741 mmHg 96%
    04:00 +10°C° 0 mm 2 m/S 741 mmHg 96%
    05:00 +10°C° 0 mm 2 m/S 741 mmHg 96%
    06:00 +10°C° 0 mm 2 m/S 741 mmHg 96%
    07:00 +10°C° 0 mm 2 m/S 741 mmHg 96%
    08:00 +12°C° 0 mm 2 m/S 741 mmHg 93%
    09:00 +12°C° 0 mm 3 m/S 741 mmHg 91%
    10:00 +13°C° 0 mm 3 m/S 741 mmHg 88%
    11:00 +14°C° 0 mm 3 m/S 741 mmHg 84%
    12:00 +15°C° 0 mm 4 m/S 741 mmHg 79%
    13:00 +17°C° 0 mm 4 m/S 740 mmHg 75%
    14:00 +17°C° 0 mm 4 m/S 740 mmHg 76%
    15:00 +16°C° 0 mm 3 m/S 740 mmHg 78%
    16:00 +16°C° 0 mm 3 m/S 740 mmHg 79%
    17:00 +14°C° 0 mm 3 m/S 740 mmHg 83%
    18:00 +14°C° 0 mm 2 m/S 740 mmHg 87%
    19:00 +13°C° 0 mm 2 m/S 740 mmHg 91%
    20:00 +13°C° 0 mm 2 m/S 739 mmHg 92%
    21:00 +13°C° 0 mm 2 m/S 739 mmHg 92%
    22:00 +13°C° 0 mm 2 m/S 739 mmHg 93%
    23:00 +12°C° 0 mm 3 m/S 739 mmHg 93%

    27 Oktober, Freitag

    Zeit Temperatur Niederschläge Wind Luftdruck Luftfeuchtigkeit
    00:00 +11°C° 0 mm 3 m/S 738 mmHg 93%
    01:00 +11°C° 0 mm 3 m/S 738 mmHg 93%
    02:00 +11°C° 0 mm 3 m/S 738 mmHg 93%
    03:00 +11°C° 0 mm 4 m/S 737 mmHg 93%
    04:00 +11°C° 0 mm 4 m/S 737 mmHg 92%
    05:00 +11°C° 0,2 mm 4 m/S 736 mmHg 92%
    06:00 +11°C° 0,2 mm 4 m/S 736 mmHg 91%
    07:00 +11°C° 0,2 mm 3 m/S 736 mmHg 91%
    08:00 +11°C° 1,1 mm 4 m/S 736 mmHg 90%
    09:00 +10°C° 1,1 mm 4 m/S 736 mmHg 90%
    10:00 +8°C° 1,1 mm 4 m/S 736 mmHg 90%
    11:00 +9°C° 0,8 mm 5 m/S 736 mmHg 88%
    12:00 +9°C° 0,8 mm 5 m/S 736 mmHg 86%
    13:00 +9°C° 0,8 mm 5 m/S 736 mmHg 84%
    14:00 +9°C° 0,1 mm 5 m/S 736 mmHg 83%
    15:00 +9°C° 0,1 mm 5 m/S 736 mmHg 81%
    16:00 +9°C° 0,1 mm 5 m/S 736 mmHg 80%
    17:00 +8°C° 0 mm 4 m/S 736 mmHg 84%
    18:00 +8°C° 0 mm 4 m/S 737 mmHg 87%
    19:00 +7°C° 0 mm 4 m/S 737 mmHg 91%
    20:00 +7°C° 0 mm 4 m/S 737 mmHg 91%
    21:00 +7°C° 0 mm 4 m/S 736 mmHg 91%
    22:00 +6°C° 0 mm 4 m/S 736 mmHg 92%
    23:00 +6°C° 0,1 mm 4 m/S 736 mmHg 90%

    28 Oktober, Samstag

    Zeit Temperatur Niederschläge Wind Luftdruck Luftfeuchtigkeit
    00:00 +7°C° 0,1 mm 5 m/S 735 mmHg 88%
    01:00 +7°C° 0,1 mm 5 m/S 735 mmHg 87%
    02:00 +5°C° 0,6 mm 6 m/S 734 mmHg 87%
    03:00 +5°C° 0,6 mm 6 m/S 733 mmHg 87%
    04:00 +5°C° 0,6 mm 6 m/S 732 mmHg 87%
    05:00 +5°C° 0,6 mm 6 m/S 731 mmHg 87%
    06:00 +6°C° 0,6 mm 7 m/S 731 mmHg 87%
    07:00 +6°C° 0,6 mm 7 m/S 730 mmHg 88%
    08:00 +6°C° 0,5 mm 7 m/S 730 mmHg 87%
    09:00 +8°C° 0,5 mm 7 m/S 730 mmHg 85%
    10:00 +8°C° 0,5 mm 7 m/S 730 mmHg 84%
    11:00 +7°C° 0,6 mm 8 m/S 730 mmHg 82%
    12:00 +7°C° 0,6 mm 8 m/S 730 mmHg 80%
    13:00 +7°C° 0,6 mm 8 m/S 730 mmHg 78%
    14:00 +7°C° 0,2 mm 8 m/S 730 mmHg 79%
    15:00 +7°C° 0,2 mm 8 m/S 730 mmHg 80%
    16:00 +6°C° 0,2 mm 7 m/S 730 mmHg 82%
    17:00 +6°C° 0,1 mm 7 m/S 731 mmHg 83%
    18:00 +7°C° 0,1 mm 6 m/S 732 mmHg 85%
    19:00 +7°C° 0,1 mm 6 m/S 733 mmHg 87%
    20:00 +7°C° 0,1 mm 5 m/S 734 mmHg 88%
    21:00 +7°C° 0,1 mm 5 m/S 734 mmHg 89%
    22:00 +6°C° 0,1 mm 5 m/S 735 mmHg 90%
    23:00 +6°C° 0 mm 4 m/S 736 mmHg 90%

    29 Oktober, Sonntag

    Zeit Temperatur Niederschläge Wind Luftdruck Luftfeuchtigkeit
    00:00 +6°C° 0 mm 4 m/S 736 mmHg 91%
    01:00 +6°C° 0 mm 4 m/S 736 mmHg 91%
    02:00 +6°C° 0 mm 4 m/S 736 mmHg 91%
    03:00 +6°C° 0 mm 4 m/S 737 mmHg 91%
    04:00 +6°C° 0 mm 4 m/S 737 mmHg 90%
    05:00 +6°C° 0 mm 4 m/S 737 mmHg 91%
    06:00 +5°C° 0 mm 4 m/S 737 mmHg 92%
    07:00 +5°C° 0 mm 4 m/S 737 mmHg 92%
    08:00 +6°C° 0 mm 4 m/S 737 mmHg 90%
    09:00 +6°C° 0 mm 5 m/S 737 mmHg 88%
    10:00 +7°C° 0 mm 5 m/S 737 mmHg 86%
    11:00 +7°C° 0,1 mm 5 m/S 736 mmHg 86%
    12:00 +8°C° 0,1 mm 6 m/S 736 mmHg 87%
    13:00 +8°C° 0,1 mm 6 m/S 735 mmHg 87%
    14:00 +8°C° 0,1 mm 6 m/S 735 mmHg 87%
    15:00 +8°C° 0,1 mm 6 m/S 735 mmHg 87%
    16:00 +9°C° 0,1 mm 6 m/S 734 mmHg 88%
    17:00 +8°C° 0,1 mm 6 m/S 734 mmHg 87%
    18:00 +8°C° 0,1 mm 6 m/S 734 mmHg 86%
    19:00 +8°C° 0,1 mm 6 m/S 734 mmHg 86%
    20:00 +8°C° 0,4 mm 6 m/S 734 mmHg 87%
    21:00 +8°C° 0,4 mm 6 m/S 733 mmHg 88%
    22:00 +8°C° 0,4 mm 6 m/S 733 mmHg 89%
    23:00 +8°C° 0,2 mm 6 m/S 733 mmHg 89%
    Mehr zeigen